Location: Wien
(48.2082°N, 16.3738°E)
Time: 12:18:19
(UTC+01:00)

SR - Visible Passes

Search period start: 22 February 2024 00:00
Search period end: 03 March 2024 00:00
Orbit: 573 x 868 km, 66.7° (Epoch: 21 February)

Date Brightness Start Highest point End Pass type
(mag) Time Alt. Az. Time Alt. Az. Time Alt. Az.
22 Feb ? 18:48:46 10° WNW 18:52:06 15° NNW 18:55:20 10° NNE visible
22 Feb ? 20:35:19 10° N 20:36:28 11° N 20:37:18 10° NNE visible
23 Feb ? 17:55:14 10° W 17:59:34 21° NNW 18:03:44 10° NNE visible
23 Feb ? 19:42:15 10° NNW 19:43:41 11° N 19:45:04 10° N visible
23 Feb ? 21:25:22 10° NNW 21:26:06 12° N 21:26:06 12° N visible
24 Feb ? 18:48:26 10° NW 18:50:54 13° NNW 18:53:19 10° N visible
24 Feb ? 20:33:43 10° N 20:35:22 11° N 20:35:38 11° NNE visible
25 Feb ? 17:54:41 10° WNW 17:58:15 17° NNW 18:01:43 10° NNE visible
25 Feb ? 19:41:36 10° N 19:42:33 10° N 19:43:31 10° N visible
25 Feb ? 21:23:24 10° NNW 21:24:25 13° N 21:24:25 13° N visible
26 Feb ? 18:48:10 10° NNW 18:49:46 11° N 18:51:20 10° N visible
26 Feb ? 20:31:49 10° N 20:33:57 13° NNE 20:33:57 13° NNE visible
26 Feb ? 22:13:05 10° NNW 22:13:12 11° NNW 22:13:12 11° NNW visible
27 Feb ? 19:40:09 10° N 19:41:27 11° N 19:42:44 10° NNE visible
27 Feb ? 21:21:26 10° NNW 21:22:45 15° N 21:22:45 15° N visible
28 Feb ? 18:47:46 10° NNW 18:48:39 10° N 18:49:30 10° N visible
28 Feb ? 20:29:50 10° NNW 20:32:17 15° NNE 20:32:17 15° NNE visible
28 Feb ? 22:11:11 10° NNW 22:11:32 12° NNW 22:11:32 12° NNW visible
29 Feb ? 19:38:16 10° N 19:40:17 12° NNE 19:41:50 11° NNE visible
29 Feb ? 21:19:28 10° NNW 21:21:05 18° N 21:21:05 18° N visible
01 Mar ? 18:46:34 10° N 18:47:30 10° N 18:48:26 10° NNE visible
01 Mar ? 20:27:51 10° NNW 20:30:38 19° NNE 20:30:38 19° NNE visible
01 Mar ? 22:09:21 10° NNW 22:09:54 13° NNW 22:09:54 13° NNW visible
02 Mar ? 19:36:15 10° N 19:39:03 14° NNE 19:40:12 13° NE visible
02 Mar ? 21:17:32 10° NNW 21:19:28 21° NNW 21:19:28 21° NNW visible
